GW6410 Weather Reports


time (UTC)temp
C
wind
direction
speed
KPH
gust
KPH
rain 1hr
cm
rain 24hr
cm
rain mn
cm
humidity
%
barometer
mb
20260906112506 21 234 0.0 0.0 0.00 0.00 0.00 93 1013.2
20260906112008 21 234 0.0 0.0 0.00 0.00 0.00 93 1013.1
20260906111516 21 234 0.0 0.0 0.00 0.00 0.00 93 1013.1
20260906111007 21 234 0.0 1.6 0.00 0.00 0.00 93 1013.0
20260906110508 21 234 0.0 1.6 0.00 0.00 0.00 93 1013.2
20260906110024 21 233 0.0 1.6 0.00 0.00 0.00 93 1013.0
20260906105513 21 233 0.0 1.6 0.00 0.00 0.00 93 1012.9
20260906105013 21 233 0.0 1.6 0.00 0.00 0.00 93 1012.9
20260906104529 21 233 0.0 0.0 0.00 0.00 0.00 93 1012.8
20260906104012 21 233 0.0 1.6 0.00 0.00 0.00 93 1012.7
20260906103502 21 233 0.0 1.6 0.00 0.00 0.00 93 1012.7
20260906103015 21 234 0.0 1.6 0.00 0.00 0.00 93 1012.7
20260906102504 21 234 0.0 1.6 0.00 0.00 0.00 93 1012.7
20260906102004 21 234 0.0 1.6 0.00 0.00 0.00 93 1012.7
20260906101505 21 234 0.0 0.0 0.00 0.00 0.00 93 1012.7
20260906101006 21 234 0.0 1.6 0.00 0.00 0.00 93 1012.7
20260906100504 21 234 0.0 1.6 0.00 0.00 0.00 93 1012.7
20260906100019 21 225 0.0 1.6 0.00 0.00 0.00 93 1012.8
20260906095503 21 226 0.0 1.6 0.00 0.00 0.00 93 1012.7
20260906095004 21 282 0.0 1.6 0.00 0.00 0.00 93 1012.7
20260906094506 21 282 0.0 1.6 0.00 0.00 0.00 93 1012.8
20260906094003 21 282 0.0 1.6 0.00 0.00 0.00 93 1012.9
20260906093505 21 281 0.0 1.6 0.00 0.00 0.00 93 1012.7
20260906093004 21 269 0.0 1.6 0.00 0.00 0.00 93 1012.7
20260906092502 21 269 0.0 1.6 0.00 0.00 0.00 93 1012.7
20260906092004 21 269 0.0 1.6 0.00 0.00 0.00 93 1012.8
20260906091507 21 298 0.0 1.6 0.00 0.00 0.00 93 1013.0
20260906091004 21 298 0.0 1.6 0.00 0.00 0.00 93 1012.9
20260906090504 21 299 0.0 1.6 0.00 0.00 0.00 93 1012.8
20260906090010 21 298 0.0 1.6 0.00 0.00 0.00 93 1012.8
20260906085505 21 298 0.0 1.6 0.00 0.00 0.00 93 1012.9
20260906085004 21 298 0.0 0.0 0.00 0.00 0.00 93 1012.9
20260906084507 21 298 0.0 0.0 0.00 0.00 0.00 93 1012.5
20260906084005 21 298 0.0 1.6 0.00 0.00 0.00 93 1012.6
20260906083504 21 298 0.0 1.6 0.00 0.00 0.00 93 1012.8
20260906083008 21 298 0.0 1.6 0.00 0.00 0.00 93 1012.8
20260906082503 21 298 0.0 1.6 0.00 0.00 0.00 93 1012.7
20260906082004 21 298 0.0 0.0 0.00 0.00 0.00 93 1012.5
20260906081510 21 298 0.0 0.0 0.00 0.00 0.00 93 1012.6
20260906081003 21 298 0.0 0.0 0.00 0.00 0.00 93 1012.7
20260906080504 21 298 0.0 0.0 0.00 0.00 0.00 93 1012.8
20260906080010 21 298 0.0 0.0 0.00 0.00 0.00 93 1012.7
20260906075503 21 298 0.0 1.6 0.00 0.00 0.00 93 1012.6
20260906075004 21 298 0.0 1.6 0.00 0.00 0.00 92 1012.7
20260906074511 21 298 0.0 0.0 0.00 0.00 0.00 92 1012.7
20260906074004 21 298 0.0 0.0 0.00 0.00 0.00 92 1012.7
20260906073503 21 298 0.0 0.0 0.00 0.00 0.00 92 1012.6
20260906073010 21 298 0.0 0.0 0.00 0.00 0.00 92 1012.8
20260906072507 21 298 0.0 0.0 0.00 0.00 0.00 92 1012.7
20260906072005 21 298 0.0 0.0 0.00 0.00 0.00 92 1012.8
20260906071512 21 298 0.0 0.0 0.00 0.00 0.00 91 1012.8
20260906071007 21 298 0.0 0.0 0.00 0.00 0.00 92 1012.9
20260906070507 21 298 0.0 0.0 0.00 0.00 0.00 92 1012.8
20260906070010 21 298 0.0 0.0 0.00 0.00 0.00 91 1012.8
20260906065503 21 298 0.0 0.0 0.00 0.00 0.00 91 1012.7
20260906065004 21 298 0.0 0.0 0.00 0.00 0.00 91 1012.7
20260906064510 21 298 0.0 0.0 0.00 0.00 0.00 91 1012.5
20260906064008 21 298 0.0 0.0 0.00 0.00 0.00 91 1012.7
20260906063508 21 298 0.0 0.0 0.00 0.00 0.00 90 1012.8
20260906063012 21 298 0.0 0.0 0.00 0.00 0.00 90 1012.8
20260906062507 21 298 0.0 0.0 0.00 0.00 0.00 90 1012.9
20260906062004 21 298 0.0 0.0 0.00 0.00 0.00 90 1013.1
20260906061522 21 298 0.0 1.6 0.00 0.00 0.00 90 1013.3
20260906061007 21 298 0.0 1.6 0.00 0.00 0.00 90 1013.2
20260906060504 21 241 0.0 0.0 0.00 0.00 0.00 90 1013.3
20260906060014 21 231 0.0 0.0 0.00 0.00 0.00 90 1013.3
20260906055509 21 228 0.0 0.0 0.00 0.00 0.00 90 1013.4
20260906055008 21 228 0.0 0.0 0.00 0.00 0.00 91 1013.5
20260906054525 21 228 0.0 0.0 0.00 0.00 0.00 91 1013.5
20260906054006 21 228 0.0 0.0 0.00 0.00 0.00 91 1013.5
20260906053511 21 228 0.0 0.0 0.00 0.00 0.00 91 1013.8
20260906053014 21 228 0.0 0.0 0.00 0.00 0.00 91 1013.9
20260906052504 21 228 0.0 1.6 0.00 0.00 0.00 91 1013.9
20260906052012 21 227 0.0 1.6 0.00 0.00 0.00 91 1013.9
20260906051517 21 227 0.0 0.0 0.00 0.00 0.00 91 1013.9
20260906051009 21 227 0.0 0.0 0.00 0.00 0.00 91 1013.8
20260906050509 21 227 0.0 0.0 0.00 0.00 0.00 91 1013.9
20260906050016 21 227 0.0 0.0 0.00 0.00 0.00 90 1013.8
20260906045508 22 227 0.0 0.0 0.00 0.00 0.00 90 1013.9
20260906045006 22 227 0.0 0.0 0.00 0.00 0.00 90 1013.8
20260906044515 22 227 0.0 0.0 0.00 0.00 0.00 90 1013.7
20260906044008 22 227 0.0 0.0 0.00 0.00 0.00 90 1013.6
20260906043506 22 227 0.0 0.0 0.00 0.00 0.00 89 1013.5
20260906043021 22 227 0.0 0.0 0.00 0.00 0.00 89 1013.6
20260906042508 22 227 0.0 0.0 0.00 0.00 0.00 89 1013.5
20260906042011 22 227 0.0 0.0 0.00 0.00 0.00 90 1013.4
20260906041518 22 227 0.0 0.0 0.00 0.00 0.00 89 1013.5
20260906041008 22 227 0.0 0.0 0.00 0.00 0.00 89 1013.5
20260906040509 22 227 0.0 0.0 0.00 0.00 0.00 89 1013.4
20260906040019 22 227 0.0 0.0 0.00 0.00 0.00 89 1013.4
20260906035507 22 227 0.0 0.0 0.00 0.00 0.00 89 1013.4
20260906035006 22 227 0.0 0.0 0.00 0.00 0.00 89 1013.4
20260906034516 22 227 0.0 0.0 0.00 0.00 0.00 88 1013.4
20260906034009 22 227 0.0 0.0 0.00 0.00 0.00 88 1013.4
20260906033508 22 227 0.0 0.0 0.00 0.00 0.00 88 1013.5
20260906033017 22 227 0.0 0.0 0.00 0.00 0.00 88 1013.4
20260906032510 22 227 0.0 1.6 0.00 0.00 0.00 88 1013.5
20260906032013 22 227 0.0 1.6 0.00 0.00 0.00 88 1013.7
20260906031515 22 227 0.0 0.0 0.00 0.00 0.00 87 1013.7
20260906031007 22 227 0.0 0.0 0.00 0.00 0.00 87 1013.7
20260906030508 23 227 0.0 1.6 0.00 0.00 0.00 87 1013.7
20260906030020 23 227 0.0 1.6 0.00 0.00 0.00 87 1013.8
20260906025508 23 226 0.0 0.0 0.00 0.00 0.00 87 1013.9
20260906025008 23 226 0.0 0.0 0.00 0.00 0.00 87 1014.0
20260906024518 23 226 0.0 0.0 0.00 0.00 0.00 86 1014.1
20260906024008 23 226 0.0 0.0 0.00 0.00 0.00 86 1014.2
20260906023508 23 226 0.0 0.0 0.00 0.00 0.00 85 1014.3
20260906023018 23 226 0.0 0.0 0.00 0.00 0.00 85 1014.2
20260906022509 23 226 0.0 0.0 0.00 0.00 0.00 85 1014.2
20260906022010 23 226 0.0 0.0 0.00 0.00 0.00 85 1014.5
20260906021535 23 226 0.0 0.0 0.00 0.00 0.00 84 1014.6
20260906021010 23 226 0.0 0.0 0.00 0.00 0.00 84 1014.4
20260906020515 23 241 0.0 0.0 0.00 0.00 0.00 84 1014.4
20260906020020 23 242 0.0 0.0 0.00 0.00 0.00 84 1014.6
20260906015508 24 242 0.0 0.0 0.00 0.00 0.00 84 1014.6
20260906015010 24 242 0.0 0.0 0.00 0.00 0.00 84 1014.5
20260906014524 24 242 0.0 0.0 0.00 0.00 0.00 83 1014.6
20260906014012 24 242 0.0 0.0 0.00 0.00 0.00 83 1014.5
20260906013510 24 242 0.0 1.6 0.00 0.00 0.00 83 1014.3
20260906013034 25 242 0.0 1.6 0.00 0.00 0.00 82 1014.0
20260906012503 25 242 0.0 1.6 0.00 0.00 0.00 81 1013.8
20260906012003 25 242 0.0 1.6 0.00 0.00 0.00 81 1013.5
20260906011504 25 151 0.0 1.6 0.00 0.00 0.00 81 1013.6
20260906011002 25 150 0.0 0.0 0.00 0.00 0.00 80 1013.4
20260906010508 25 150 0.0 0.0 0.00 0.00 0.00 79 1013.5
20260906010013 25 150 0.0 0.0 0.00 0.00 0.00 79 1013.5
20260906005505 25 150 0.0 0.0 0.00 0.00 0.00 79 1013.6
20260906005009 25 150 0.0 0.0 0.00 0.00 0.00 79 1013.6
20260906004515 26 150 0.0 0.0 0.00 0.00 0.00 78 1013.8
20260906004009 26 150 0.0 0.0 0.00 0.00 0.00 77 1013.9
20260906003510 26 150 0.0 0.0 0.00 0.00 0.00 76 1014.0
20260906003024 26 150 0.0 1.6 0.00 0.00 0.00 75 1013.7
20260906002510 26 150 0.0 1.6 0.00 0.00 0.00 75 1013.8
20260906002012 26 153 0.0 3.2 0.00 0.00 0.00 75 1013.8
20260906001527 26 233 0.0 3.2 0.00 0.00 0.00 74 1013.6
20260906001004 26 267 0.0 1.6 0.00 0.00 0.00 74 1013.5
20260906000503 26 31 0.0 1.6 0.00 0.00 0.00 74 1013.2
20260906000008 26 45 0.0 0.0 0.00 0.00 0.00 74 1012.6
20260905235503 26 46 0.0 0.0 0.00 0.00 0.00 73 1012.1
20260905235003 27 45 0.0 0.0 0.00 0.00 0.00 73 1011.8
20260905234512 27 46 0.0 0.0 0.00 0.00 0.00 72 1011.7
20260905234007 27 45 0.0 0.0 0.00 0.00 0.00 72 1011.8
20260905233508 27 46 0.0 1.6 0.00 0.00 0.00 72 1012.2
20260905233021 27 45 0.0 1.6 0.00 0.00 0.00 71 1012.4
20260905232510 27 45 0.0 1.6 0.00 0.00 0.00 71 1012.4
20260905232012 27 46 0.0 1.6 0.00 0.00 0.00 71 1012.3
20260905231526 27 45 0.0 0.0 0.00 0.00 0.00 70 1012.2
20260905231011 27 45 0.0 1.6 0.00 0.00 0.00 70 1012.2
20260905230513 27 45 0.0 1.6 0.00 0.00 0.00 70 1012.1
20260905230031 27 46 0.0 1.6 0.00 0.00 0.00 69 1012.0
20260905225513 28 46 0.0 1.6 0.00 0.00 0.00 68 1012.1
20260905225003 28 46 0.0 1.6 0.00 0.00 0.00 68 1012.1
20260905224515 28 46 0.0 1.6 0.00 0.00 0.00 66 1012.1
20260905224007 28 44 0.0 1.6 0.00 0.00 0.00 65 1012.4
20260905223510 28 44 0.0 4.8 0.00 0.00 0.00 65 1012.6
20260905223015 28 44 0.0 4.8 0.00 0.00 0.00 64 1012.6
20260905222506 29 39 1.6 6.4 0.00 0.00 0.00 63 1012.5
20260905222010 30 66 1.6 6.4 0.00 0.00 0.00 63 1012.5
20260905221523 30 7 1.6 8.0 0.00 0.00 0.00 61 1012.6
20260905221012 31 360 0.0 9.7 0.00 0.00 0.00 58 1012.5
20260905220512 31 12 3.2 16.1 0.00 0.00 0.00 56 1012.4
20260905220030 32 3 3.2 17.7 0.00 0.00 0.00 55 1012.5
20260905215513 33 53 6.4 22.5 0.00 0.00 0.00 53 1012.4
20260905215013 35 354 12.9 22.5 0.00 0.00 0.00 50 1012.1
20260905214530 36 316 11.3 17.7 0.00 0.00 0.00 46 1011.9
20260905214014 37 359 0.0 4.8 0.00 0.00 0.00 45 1011.7
20260905213503 37 1 3.2 4.8 0.00 0.00 0.00 43 1011.6
20260905213010 37 349 0.0 3.2 0.00 0.00 0.00 48 1011.4
20260905212504 37 349 0.0 4.8 0.00 0.00 0.00 46 1011.5
20260905212008 37 291 0.0 4.8 0.00 0.00 0.00 46 1011.5
20260905211519 37 95 0.0 1.6 0.00 0.00 0.00 46 1011.5
20260905211009 37 94 0.0 3.2 0.00 0.00 0.00 49 1011.7
20260905210510 37 94 0.0 3.2 0.00 0.00 0.00 44 1011.7
20260905210023 36 300 0.0 3.2 0.00 0.00 0.00 44 1011.5
20260905205512 36 325 1.6 3.2 0.00 0.00 0.00 45 1011.8
20260905205014 37 313 1.6 3.2 0.00 0.00 0.00 46 1011.7
20260905204531 37 285 0.0 3.2 0.00 0.00 0.00 46 1011.8
20260905204016 37 327 0.0 6.4 0.00 0.00 0.00 46 1011.8
20260905203512 37 143 0.0 6.4 0.00 0.00 0.00 43 1011.9
20260905203029 37 151 1.6 4.8 0.00 0.00 0.00 44 1012.0
20260905202514 37 210 0.0 3.2 0.00 0.00 0.00 43 1012.0
20260905202016 37 191 1.6 4.8 0.00 0.00 0.00 45 1012.2
20260905201514 37 195 1.6 4.8 0.00 0.00 0.00 44 1012.2
20260905201003 37 286 1.6 3.2 0.00 0.00 0.00 45 1012.3
20260905200508 37 274 0.0 4.8 0.00 0.00 0.00 47 1012.3
20260905200024 37 338 0.0 4.8 0.00 0.00 0.00 46 1012.3
20260905195507 37 342 0.0 1.6 0.00 0.00 0.00 51 1012.3
20260905195011 37 338 1.6 1.6 0.00 0.00 0.00 49 1012.3
20260905194527 36 3 0.0 4.8 0.00 0.00 0.00 47 1012.3
20260905194010 36 347 1.6 4.8 0.00 0.00 0.00 49 1012.5
20260905193521 37 289 1.6 3.2 0.00 0.00 0.00 47 1012.5
20260905193030 37 8 0.0 3.2 0.00 0.00 0.00 46 1012.5
20260905192515 37 12 0.0 4.8 0.00 0.00 0.00 48 1012.6
20260905192014 37 68 1.6 4.8 0.00 0.00 0.00 46 1012.7
20260905191538 37 288 0.0 4.8 0.00 0.00 0.00 48 1012.7
20260905191014 37 212 1.6 4.8 0.00 0.00 0.00 44 1012.7
20260905190515 37 143 1.6 4.8 0.00 0.00 0.00 44 1012.9
20260905190016 37 338 0.0 3.2 0.00 0.00 0.00 46 1013.0
20260905185504 36 238 0.0 4.8 0.00 0.00 0.00 46 1013.1
20260905185012 36 134 0.0 4.8 0.00 0.00 0.00 46 1013.0
20260905184522 36 182 1.6 4.8 0.00 0.00 0.00 46 1013.1
20260905184008 36 261 1.6 6.4 0.00 0.00 0.00 46 1013.1
20260905183510 36 140 0.0 6.4 0.00 0.00 0.00 49 1013.2
20260905183027 36 108 0.0 6.4 0.00 0.00 0.00 50 1013.3
20260905182512 36 115 0.0 6.4 0.00 0.00 0.00 49 1013.3
20260905182012 36 184 0.0 3.2 0.00 0.00 0.00 49 1013.4
20260905181532 36 231 0.0 3.2 0.00 0.00 0.00 48 1013.4
20260905181017 36 343 0.0 3.2 0.00 0.00 0.00 54 1013.6
20260905180516 36 170 0.0 4.8 0.00 0.00 0.00 50 1013.7
20260905180032 36 216 0.0 4.8 0.00 0.00 0.00 49 1013.7
20260905175518 36 348 1.6 6.4 0.00 0.00 0.00 54 1013.8
20260905175019 36 226 3.2 6.4 0.00 0.00 0.00 48 1013.9
20260905174534 36 145 0.0 6.4 0.00 0.00 0.00 51 1013.7
20260905174006 36 200 1.6 3.2 0.00 0.00 0.00 53 1013.7
20260905173509 36 103 0.0 1.6 0.00 0.00 0.00 50 1014.0
20260905173019 36 101 0.0 1.6 0.00 0.00 0.00 57 1014.1
20260905172510 35 220 0.0 3.2 0.00 0.00 0.00 55 1014.1
20260905172010 35 324 1.6 3.2 0.00 0.00 0.00 55 1014.1
20260905171537 35 20 0.0 3.2 0.00 0.00 0.00 53 1014.2
20260905171013 35 354 0.0 3.2 0.00 0.00 0.00 53 1014.2
20260905170513 35 2 0.0 3.2 0.00 0.00 0.00 56 1014.3
20260905170032 35 108 0.0 1.6 0.00 0.00 0.00 55 1014.3
20260905165516 35 123 0.0 1.6 0.00 0.00 0.00 59 1014.5
20260905165016 35 344 0.0 3.2 0.00 0.00 0.00 58 1014.5
20260905164534 34 255 0.0 4.8 0.00 0.00 0.00 60 1014.5
20260905164019 34 265 0.0 4.8 0.00 0.00 0.00 57 1014.5
20260905163508 34 291 3.2 4.8 0.00 0.00 0.00 60 1014.5
20260905163018 33 254 1.6 8.0 0.00 0.00 0.00 57 1014.7
20260905162512 33 349 4.8 8.0 0.00 0.00 0.00 58 1014.7
20260905162010 33 205 0.0 4.8 0.00 0.00 0.00 57 1014.7
20260905161523 33 270 0.0 3.2 0.00 0.00 0.00 59 1014.8
20260905161010 33 336 1.6 4.8 0.00 0.00 0.00 59 1014.8
20260905160503 33 269 0.0 4.8 0.00 0.00 0.00 57 1014.8
20260905160014 33 120 1.6 4.8 0.00 0.00 0.00 60 1014.8
20260905155502 33 296 1.6 3.2 0.00 0.00 0.00 60 1014.9
20260905155003 33 328 0.0 3.2 0.00 0.00 0.00 59 1014.9
20260905154508 33 190 0.0 3.2 0.00 0.00 0.00 63 1015.0
20260905154004 33 233 0.0 3.2 0.00 0.00 0.00 64 1015.1
20260905153504 32 300 1.6 3.2 0.00 0.00 0.00 63 1015.3
20260905153011 32 329 1.6 3.2 0.00 0.00 0.00 67 1015.4
20260905152504 32 105 0.0 4.8 0.00 0.00 0.00 68 1015.5
20260905152007 31 344 1.6 4.8 0.00 0.00 0.00 66 1015.5
20260905151518 31 326 3.2 4.8 0.00 0.00 0.00 65 1015.6
20260905151009 31 326 1.6 6.4 0.00 0.00 0.00 68 1015.6
20260905150510 31 321 0.0 6.4 0.00 0.00 0.00 68 1015.6
20260905150027 31 279 0.0 3.2 0.00 0.00 0.00 69 1015.6
20260905145512 31 265 0.0 3.2 0.00 0.00 0.00 70 1015.7
20260905145012 30 301 1.6 3.2 0.00 0.00 0.00 70 1015.7
20260905144514 30 257 0.0 0.0 0.00 0.00 0.00 73 1015.6
20260905144003 30 235 0.0 0.0 0.00 0.00 0.00 72 1015.7
20260905143503 29 314 0.0 0.0 0.00 0.00 0.00 76 1015.7
20260905143007 29 316 0.0 0.0 0.00 0.00 0.00 75 1015.8
20260905142502 28 334 0.0 0.0 0.00 0.00 0.00 78 1015.8
20260905142004 28 104 0.0 0.0 0.00 0.00 0.00 80 1015.8
20260905141514 28 232 0.0 0.0 0.00 0.00 0.00 81 1015.8
20260905141009 27 229 0.0 0.0 0.00 0.00 0.00 82 1015.8
20260905140505 27 299 0.0 0.0 0.00 0.00 0.00 82 1015.8
20260905140018 27 299 0.0 0.0 0.00 0.00 0.00 84 1015.8
20260905135507 27 299 0.0 0.0 0.00 0.00 0.00 84 1015.8
20260905135010 26 322 0.0 0.0 0.00 0.00 0.00 85 1015.9
20260905134527 26 322 0.0 0.0 0.00 0.00 0.00 85 1015.9
20260905134014 26 322 0.0 0.0 0.00 0.00 0.00 86 1015.8
20260905133512 25 211 0.0 0.0 0.00 0.00 0.00 87 1015.8
20260905133006 25 210 0.0 0.0 0.00 0.00 0.00 88 1015.8
20260905132503 25 209 0.0 0.0 0.00 0.00 0.00 89 1015.8
20260905132007 24 207 0.0 0.0 0.00 0.00 0.00 90 1015.9
20260905131508 24 203 0.0 0.0 0.00 0.00 0.00 92 1016.0
20260905131004 23 207 0.0 0.0 0.00 0.00 0.00 93 1016.0
20260905130509 23 207 0.0 0.0 0.00 0.00 0.00 94 1016.1
20260905130015 23 196 0.0 0.0 0.00 0.00 0.00 95 1016.0
20260905125508 23 195 0.0 0.0 0.00 0.00 0.00 95 1016.1
20260905125011 23 196 0.0 0.0 0.00 0.00 0.00 95 1016.1
20260905124524 23 196 0.0 0.0 0.00 0.00 0.00 96 1016.0
20260905124013 22 196 0.0 0.0 0.00 0.00 0.00 96 1016.0
20260905123510 22 196 0.0 0.0 0.00 0.03 0.00 96 1016.0
20260905123026 22 196 0.0 0.0 0.00 0.03 0.00 96 1016.0
20260905122514 22 196 0.0 0.0 0.00 0.03 0.00 95 1015.9
20260905122022 21 196 0.0 0.0 0.00 0.03 0.00 95 1015.9
20260905121504 21 196 0.0 0.0 0.00 0.03 0.00 95 1015.9
20260905121004 21 196 0.0 0.0 0.00 0.03 0.00 95 1015.9
20260905120504 21 196 0.0 0.0 0.00 0.03 0.00 95 1015.9
20260905120009 21 196 0.0 0.0 0.00 0.03 0.00 95 1015.9
20260905115504 21 196 0.0 0.0 0.00 0.03 0.00 95 1015.8
20260905115006 21 196 0.0 0.0 0.00 0.03 0.00 95 1015.6
20260905114518 21 196 0.0 0.0 0.00 0.03 0.00 95 1015.6
20260905114007 21 196 0.0 0.0 0.00 0.03 0.00 95 1015.5
20260905113509 21 196 0.0 0.0 0.00 0.03 0.00 95 1015.4
20260905113023 21 196 0.0 0.0 0.00 0.03 0.00 95 1015.4